sat.trackr.live / text

‹ back to catalog

ITASAT

NORAD 43786 · 2018-099AE

PAYLOAD ACTIVE UNKNOWN

§ Identity

Operator
Country
BRAZ
Launch date
2018-12-03
Launch site
AFWTR
Launch vehicle
Mass (kg)
RCS (m²)

Purposes: comms

External: N2YO · Heavens-Above · Gunter

§ Orbital elements

Epoch: 2026-09-13T01:33:15.270048Z

Period
94.74 min
Inclination
97.3939°
Eccentricity
0.0013411
Mean motion
15.20002592 rev/d
Perigee alt
496.6 km
Apogee alt
515.1 km
Semi-major
6,884.0 km
B*
2.0465e-4
RAAN
305.8399°
Arg perigee
51.1285°
Mean anomaly
309.1144°
Rev number
42,625

§ Raw data

ITASAT1 43786U 18099AE  26256.06476007  .00004350  00000+0  20465-3 0  99972 43786  97.3939 305.8399 0013411  51.1285 309.1144 15.20002592426256

JSON: /api/v1/satellites/43786 · /tle

For live sub-satellite position, see the globe view (requires WebGL).

§ Visibility from observer

Set your observer location to see the next 7 days of passes ≥ 10°. The values pass through the URL so the page stays shareable.

No JS? Fill the form by hand. The geolocation button needs JavaScript.

§ Radio — SatNOGS DB

ModeDescriptionDownlinkUplink
BPSK BPSK14k4 2.400 GHz
BPSK BPSK1k2 AX.25 TLM 145.860 MHz

2 transmitters · refreshed weekly from db.satnogs.org